Regional Weather Roundup
Issued by NWS

Home | Current Version | Previous Version | Text Only | Print | Product List | Glossary On
Versions: 1 2 3 4 5 6 7 8 9 10 11 12 13 14 15 16 17 18 19 20 21 22 23 24 25 26 27 28 29 30 31 32 33 34 35 36 37 38 39 40 41 42 43 44 45 46 47 48 49 50
000
ASUS44 KJAN 310810
RWRMS

MISSISSIPPI HOURLY WEATHER ROUNDUP
NATIONAL WEATHER SERVICE JACKSON MS
200 AM CST SAT JAN 31 2015

NOTE: "FAIR: INDICATES FEW OR NO CLOUDS BELOW 12,000 FEET WITH NO
SIGNIFICANT WEATHER AND/OR OBSTRUCTIONS TO VISIBILITY.

MSZ001>002-007>008-010>013-018>021-025>028-034>036-310900-
NORTHWEST MISSISSIPPI

CITY           SKY/WX    TMP DP  RH WIND       PRES   REMARKS
CLARKSDALE     FAIR      34  30  86 NE7       30.40F WCI  28
CLEVELAND      FAIR      33  31  92 NE5       30.38F WCI  29
GREENWOOD      PTCLDY    29  26  89 E5        30.38S WCI  24
GREENVILLE     CLEAR     32  27  81 NE7       30.38S WCI  26
GRENADA        FAIR      32  28  86 CALM      30.39S
OLIVE BRANCH   CLEAR     34  28  80 NE5       30.40S WCI  30
OXFORD         FAIR      32  25  74 NE3       30.40S
TUNICA         CLOUDY    34  32  93 N5        30.41F WCI  30
$$

MSZ003>006-009-014>017-022>024-029>033-037>039-310900-
NORTHEAST MISSISSIPPI

CITY           SKY/WX    TMP DP  RH WIND       PRES   REMARKS
COLUMBUS AFB   MOCLDY    29  26  90 NW5       30.38S WCI  24
CORINTH        FAIR      30  27  86 CALM      30.39S
GOLDN TRIANGLE CLEAR     30  25  80 CALM      30.36S
STARKVILLE     FAIR      30  27  86 CALM      30.38R
TUPELO         MOCLDY    31  24  75 NE7       30.39S WCI  24
$$

MSZ040-058-310900-
CENTRAL MISSISSIPPI

CITY           SKY/WX    TMP DP  RH WIND       PRES   REMARKS
JACKSON INTL   CLEAR     34  29  82 CALM      30.34F
JACKSON HAWKNS CLEAR     36  29  75 E3        30.34F
MERIDIAN KEY   CLEAR     30  28  92 CALM      30.36F
MERIDIAN NAS   CLEAR     31  27  85 CALM      30.37S
RAYMOND        FAIR      30  27  86 MISG      30.35F FOG
VICKSBURG      CLEAR     38  31  76 NE5       30.35F WCI  34
$$

MSZ059>079-310900-
SOUTH MISSISSIPPI

CITY           SKY/WX    TMP DP  RH WIND       PRES   REMARKS
BROOKHAVEN       N/A     34  32  93 CALM      30.35F
HATTIESBURG    CLEAR     35  30  82 N3        30.36S
MCCOMB         CLEAR     41  30  65 VRB3      30.32F
NATCHEZ        PTCLDY    39  30  70 NE5       30.33F
PINE BELT      CLEAR     37  27  65 NE6       30.35S WCI  33
$$

MSZ080>082-310900-
COASTAL MISSISSIPPI

CITY           SKY/WX    TMP DP  RH WIND       PRES   REMARKS
BILOXI         PTCLDY    41  33  73 NE6       30.33S
PASCAGOULA     PTCLDY    36  32  85 CALM      30.33S
GULFPORT       PTCLDY    41  31  67 N3        30.33S
$$


USA.gov is the U.S. government's official web portal to all federal, state and local government web resources and services.